Time,TemperatureF,DewpointF,PressureIn,WindDirection,WindDirectionDegrees,WindSpeedMPH,WindSpeedGustMPH,Humidity,HourlyPrecipIn,Conditions,Clouds,dailyrainin,SoftwareType,DateUTC
2013-04-06 00:02:00,55.0,35.0,29.95,SE,135,9.0,12.0,47,-99.99,,,-99.99,,2013-04-06 05:02:00,
2013-04-06 00:12:00,55.0,34.0,29.95,SE,135,8.0,12.0,46,-99.99,,,-99.99,,2013-04-06 05:12:00,
2013-04-06 00:22:00,55.0,35.0,29.95,SE,135,10.0,14.0,46,-99.99,,,-99.99,,2013-04-06 05:22:00,
2013-04-06 00:32:00,55.0,36.0,29.95,SE,135,9.0,13.0,49,-99.99,,,-99.99,,2013-04-06 05:32:00,
2013-04-06 00:42:00,54.0,36.0,29.94,SE,135,9.0,12.0,49,-99.99,,,-99.99,,2013-04-06 05:42:00,
2013-04-06 00:51:00,54.0,36.0,29.95,SE,135,9.0,12.0,49,-99.99,,,-99.99,,2013-04-06 05:51:00,
2013-04-06 01:02:00,54.0,35.0,29.95,SE,135,8.0,11.0,48,-99.99,,,-99.99,,2013-04-06 06:02:00,
2013-04-06 01:12:00,54.0,35.0,29.94,SE,135,8.0,11.0,49,-99.99,,,-99.99,,2013-04-06 06:12:00,
2013-04-06 01:22:00,54.0,35.0,29.94,SE,135,8.0,11.0,50,-99.99,,,-99.99,,2013-04-06 06:22:00,
2013-04-06 01:32:00,54.0,36.0,29.94,SE,135,7.0,9.0,51,-99.99,,,-99.99,,2013-04-06 06:32:00,
2013-04-06 01:42:00,54.0,36.0,29.93,SE,135,7.0,9.0,52,-99.99,,,-99.99,,2013-04-06 06:42:00,
2013-04-06 01:52:00,53.0,36.0,29.93,SE,135,8.0,10.0,52,-99.99,,,-99.99,,2013-04-06 06:52:00,
2013-04-06 02:03:00,53.0,36.0,29.93,SE,135,8.0,9.0,51,-99.99,,,-99.99,,2013-04-06 07:03:00,
2013-04-06 02:12:00,54.0,36.0,29.93,SE,135,8.0,11.0,52,-99.99,,,-99.99,,2013-04-06 07:12:00,
2013-04-06 02:22:00,53.0,36.0,29.93,South,180,6.0,8.0,53,-99.99,,,-99.99,,2013-04-06 07:22:00,
2013-04-06 02:33:00,53.0,36.0,29.92,SE,135,6.0,8.0,54,-99.99,,,-99.99,,2013-04-06 07:33:00,
2013-04-06 02:43:00,53.0,36.0,29.92,SSE,157,6.0,9.0,52,-99.99,,,-99.99,,2013-04-06 07:43:00,
2013-04-06 02:52:00,53.0,37.0,29.92,SSE,157,5.0,8.0,55,-99.99,,,-99.99,,2013-04-06 07:52:00,
2013-04-06 03:02:00,53.0,37.0,29.92,SSE,157,5.0,7.0,54,-99.99,,,-99.99,,2013-04-06 08:02:00,
2013-04-06 03:12:00,52.0,37.0,29.92,SSE,157,4.0,6.0,56,-99.99,,,-99.99,,2013-04-06 08:12:00,
2013-04-06 03:22:00,52.0,37.0,29.92,SSE,157,4.0,5.0,56,-99.99,,,-99.99,,2013-04-06 08:22:00,
2013-04-06 03:32:00,52.0,36.0,29.91,SSE,157,5.0,8.0,54,-99.99,,,-99.99,,2013-04-06 08:32:00,
2013-04-06 03:42:00,53.0,36.0,29.90,SSE,157,6.0,9.0,53,-99.99,,,-99.99,,2013-04-06 08:42:00,
2013-04-06 03:52:00,53.0,37.0,29.91,SSE,157,6.0,7.0,55,-99.99,,,-99.99,,2013-04-06 08:52:00,
2013-04-06 04:02:00,52.0,37.0,29.91,SSE,157,6.0,9.0,56,-99.99,,,-99.99,,2013-04-06 09:02:00,
2013-04-06 04:12:00,52.0,37.0,29.90,South,180,5.0,7.0,56,-99.99,,,-99.99,,2013-04-06 09:12:00,
2013-04-06 04:22:00,52.0,37.0,29.90,South,180,5.0,6.0,57,-99.99,,,-99.99,,2013-04-06 09:22:00,
2013-04-06 04:32:00,52.0,37.0,29.90,SSE,157,5.0,7.0,55,-99.99,,,-99.99,,2013-04-06 09:32:00,
2013-04-06 04:42:00,52.0,37.0,29.90,SSE,157,5.0,8.0,56,-99.99,,,-99.99,,2013-04-06 09:42:00,
2013-04-06 04:52:00,52.0,36.0,29.89,SSE,157,6.0,8.0,56,-99.99,,,-99.99,,2013-04-06 09:52:00,
2013-04-06 05:03:00,52.0,37.0,29.89,SSE,157,6.0,8.0,57,-99.99,,,-99.99,,2013-04-06 10:03:00,
2013-04-06 05:12:00,51.0,36.0,29.88,SSE,157,6.0,9.0,57,-99.99,,,-99.99,,2013-04-06 10:12:00,
2013-04-06 05:22:00,51.0,36.0,29.88,SSE,157,6.0,8.0,56,-99.99,,,-99.99,,2013-04-06 10:22:00,
2013-04-06 05:33:00,51.0,37.0,29.88,SSE,157,6.0,8.0,58,-99.99,,,-99.99,,2013-04-06 10:33:00,
2013-04-06 05:42:00,52.0,37.0,29.88,SSE,157,6.0,9.0,56,-99.99,,,-99.99,,2013-04-06 10:42:00,
2013-04-06 05:52:00,53.0,36.0,29.88,South,180,7.0,12.0,53,-99.99,,,-99.99,,2013-04-06 10:52:00,
2013-04-06 06:02:00,53.0,35.0,29.88,SSE,157,5.0,9.0,50,-99.99,,,-99.99,,2013-04-06 11:02:00,
2013-04-06 06:12:00,53.0,35.0,29.88,South,180,7.0,11.0,50,-99.99,,,-99.99,,2013-04-06 11:12:00,
2013-04-06 06:22:00,53.0,35.0,29.87,South,180,6.0,12.0,50,-99.99,,,-99.99,,2013-04-06 11:22:00,
2013-04-06 06:32:00,52.0,36.0,29.87,SSE,157,6.0,8.0,52,-99.99,,,-99.99,,2013-04-06 11:32:00,
2013-04-06 06:42:00,52.0,35.0,29.87,South,180,6.0,9.0,52,-99.99,,,-99.99,,2013-04-06 11:42:00,
2013-04-06 06:52:00,52.0,35.0,29.87,South,180,8.0,11.0,52,-99.99,,,-99.99,,2013-04-06 11:52:00,
2013-04-06 07:02:00,52.0,36.0,29.88,SSE,157,7.0,9.0,55,-99.99,,,-99.99,,2013-04-06 12:02:00,
2013-04-06 07:12:00,52.0,37.0,29.87,South,180,7.0,10.0,57,-99.99,,,-99.99,,2013-04-06 12:12:00,
2013-04-06 07:22:00,52.0,35.0,29.87,SSE,157,7.0,11.0,52,-99.99,,,-99.99,,2013-04-06 12:22:00,
2013-04-06 07:32:00,53.0,35.0,29.89,SSE,157,7.0,9.0,52,-99.99,,,-99.99,,2013-04-06 12:32:00,
2013-04-06 07:43:00,53.0,35.0,29.89,South,180,6.0,9.0,51,-99.99,,,-99.99,,2013-04-06 12:43:00,
2013-04-06 07:52:00,53.0,35.0,29.90,South,180,6.0,9.0,52,-99.99,,,-99.99,,2013-04-06 12:52:00,
2013-04-06 08:02:00,53.0,36.0,29.89,South,180,6.0,9.0,52,-99.99,,,-99.99,,2013-04-06 13:02:00,
2013-04-06 08:12:00,54.0,36.0,29.90,South,180,5.0,10.0,52,-99.99,,,-99.99,,2013-04-06 13:12:00,
2013-04-06 08:23:00,53.0,36.0,29.89,South,180,8.0,13.0,52,-99.99,,,-99.99,,2013-04-06 13:23:00,
2013-04-06 08:32:00,54.0,36.0,29.87,SSE,157,9.0,14.0,50,-99.99,,,-99.99,,2013-04-06 13:32:00,
2013-04-06 08:42:00,54.0,37.0,29.87,South,180,11.0,17.0,52,-99.99,,,-99.99,,2013-04-06 13:42:00,
2013-04-06 08:52:00,56.0,35.0,29.89,SSW,202,8.0,12.0,45,-99.99,,,-99.99,,2013-04-06 13:52:00,
2013-04-06 09:03:00,56.0,37.0,29.87,South,180,8.0,13.0,47,-99.99,,,-99.99,,2013-04-06 14:03:00,
2013-04-06 09:12:00,58.0,36.0,29.86,SSW,202,10.0,14.0,44,-99.99,,,-99.99,,2013-04-06 14:12:00,
2013-04-06 09:22:00,58.0,36.0,29.86,South,180,8.0,14.0,43,-99.99,,,-99.99,,2013-04-06 14:22:00,
2013-04-06 09:32:00,59.0,36.0,29.85,SSE,157,10.0,14.0,41,-99.99,,,-99.99,,2013-04-06 14:32:00,
2013-04-06 09:42:00,59.0,35.0,29.83,South,180,11.0,19.0,41,-99.99,,,-99.99,,2013-04-06 14:42:00,
2013-04-06 10:02:00,61.0,37.0,29.83,South,180,10.0,21.0,41,-99.99,,,-99.99,,2013-04-06 15:02:00,
2013-04-06 10:12:00,62.0,37.0,29.85,SSW,202,12.0,18.0,38,-99.99,,,-99.99,,2013-04-06 15:12:00,
2013-04-06 10:22:00,64.0,37.0,29.85,SSW,202,10.0,16.0,37,-99.99,,,-99.99,,2013-04-06 15:22:00,
2013-04-06 10:33:00,64.0,37.0,29.84,SSW,202,13.0,19.0,36,-99.99,,,-99.99,,2013-04-06 15:33:00,
2013-04-06 10:43:00,66.0,38.0,29.83,South,180,13.0,17.0,36,-99.99,,,-99.99,,2013-04-06 15:43:00,
2013-04-06 10:52:00,65.0,37.0,29.82,SW,225,15.0,22.0,35,-99.99,,,-99.99,,2013-04-06 15:52:00,
2013-04-06 11:04:00,66.0,38.0,29.82,South,180,14.0,20.0,35,-99.99,,,-99.99,,2013-04-06 16:04:00,
2013-04-06 11:17:00,66.0,38.0,29.82,SSW,202,15.0,26.0,36,-99.99,,,-99.99,,2013-04-06 16:17:00,
2013-04-06 11:23:00,65.0,38.0,29.81,SW,225,15.0,24.0,36,-99.99,,,-99.99,,2013-04-06 16:23:00,
2013-04-06 11:32:00,66.0,38.0,29.81,SW,225,19.0,27.0,35,-99.99,,,-99.99,,2013-04-06 16:32:00,
2013-04-06 11:42:00,68.0,40.0,29.82,SW,225,13.0,22.0,36,-99.99,,,-99.99,,2013-04-06 16:42:00,
2013-04-06 11:52:00,66.0,39.0,29.82,SW,225,17.0,26.0,37,-99.99,,,-99.99,,2013-04-06 16:52:00,
2013-04-06 12:02:00,68.0,40.0,29.81,SSW,202,15.0,23.0,35,-99.99,,,-99.99,,2013-04-06 17:02:00,
2013-04-06 12:12:00,68.0,39.0,29.81,SSW,202,15.0,22.0,34,-99.99,,,-99.99,,2013-04-06 17:12:00,
2013-04-06 12:22:00,68.0,39.0,29.79,SSW,202,14.0,23.0,35,-99.99,,,-99.99,,2013-04-06 17:22:00,
2013-04-06 12:32:00,69.0,39.0,29.78,South,180,14.0,23.0,34,-99.99,,,-99.99,,2013-04-06 17:32:00,
2013-04-06 12:42:00,70.0,38.0,29.78,SW,225,16.0,23.0,32,-99.99,,,-99.99,,2013-04-06 17:42:00,
2013-04-06 12:52:00,69.0,38.0,29.78,SSW,202,17.0,24.0,32,-99.99,,,-99.99,,2013-04-06 17:52:00,
2013-04-06 13:02:00,68.0,38.0,29.77,SW,225,15.0,26.0,33,-99.99,,,-99.99,,2013-04-06 18:02:00,
2013-04-06 13:12:00,68.0,37.0,29.77,SW,225,16.0,22.0,33,-99.99,,,-99.99,,2013-04-06 18:12:00,
2013-04-06 13:23:00,70.0,39.0,29.77,SSW,202,11.0,17.0,32,-99.99,,,-99.99,,2013-04-06 18:23:00,
2013-04-06 13:32:00,69.0,38.0,29.75,SW,225,13.0,18.0,33,-99.99,,,-99.99,,2013-04-06 18:32:00,
2013-04-06 13:42:00,69.0,39.0,29.74,SSW,202,12.0,19.0,34,-99.99,,,-99.99,,2013-04-06 18:42:00,
2013-04-06 13:52:00,72.0,39.0,29.73,SSW,202,17.0,23.0,30,-99.99,,,-99.99,,2013-04-06 18:52:00,
2013-04-06 14:02:00,71.0,39.0,29.73,SW,225,18.0,25.0,31,-99.99,,,-99.99,,2013-04-06 19:02:00,
2013-04-06 14:12:00,72.0,40.0,29.73,South,180,17.0,29.0,31,-99.99,,,-99.99,,2013-04-06 19:12:00,
2013-04-06 14:22:00,74.0,38.0,29.73,SSW,202,15.0,24.0,28,-99.99,,,-99.99,,2013-04-06 19:22:00,
2013-04-06 14:32:00,72.0,38.0,29.72,SSW,202,17.0,31.0,29,-99.99,,,-99.99,,2013-04-06 19:32:00,
2013-04-06 14:42:00,70.0,39.0,29.73,SW,225,17.0,25.0,32,-99.99,,,-99.99,,2013-04-06 19:42:00,
2013-04-06 14:52:00,70.0,39.0,29.73,SSW,202,16.0,27.0,31,-99.99,,,-99.99,,2013-04-06 19:52:00,
2013-04-06 15:02:00,69.0,38.0,29.71,South,180,17.0,26.0,33,-99.99,,,-99.99,,2013-04-06 20:02:00,
2013-04-06 15:12:00,69.0,38.0,29.69,South,180,17.0,26.0,32,-99.99,,,-99.99,,2013-04-06 20:12:00,
2013-04-06 15:22:00,70.0,38.0,29.70,WSW,247,15.0,25.0,31,-99.99,,,-99.99,,2013-04-06 20:22:00,
2013-04-06 15:32:00,73.0,39.0,29.70,SSW,202,13.0,18.0,29,-99.99,,,-99.99,,2013-04-06 20:32:00,
2013-04-06 15:42:00,73.0,40.0,29.69,SW,225,17.0,28.0,30,-99.99,,,-99.99,,2013-04-06 20:42:00,
2013-04-06 15:52:00,71.0,39.0,29.71,SW,225,16.0,25.0,32,-99.99,,,-99.99,,2013-04-06 20:52:00,
2013-04-06 16:02:00,70.0,39.0,29.69,SSW,202,16.0,25.0,32,-99.99,,,-99.99,,2013-04-06 21:02:00,
2013-04-06 16:13:00,70.0,39.0,29.68,SSW,202,15.0,27.0,33,-99.99,,,-99.99,,2013-04-06 21:13:00,
2013-04-06 16:22:00,71.0,40.0,29.68,SSW,202,13.0,21.0,33,-99.99,,,-99.99,,2013-04-06 21:22:00,
2013-04-06 16:33:00,71.0,40.0,29.68,South,180,12.0,18.0,33,-99.99,,,-99.99,,2013-04-06 21:33:00,
2013-04-06 16:43:00,71.0,41.0,29.68,SW,225,11.0,16.0,34,-99.99,,,-99.99,,2013-04-06 21:43:00,
2013-04-06 16:52:00,74.0,41.0,29.68,SSW,202,11.0,17.0,31,-99.99,,,-99.99,,2013-04-06 21:52:00,
2013-04-06 17:03:00,72.0,41.0,29.67,SW,225,12.0,17.0,32,-99.99,,,-99.99,,2013-04-06 22:03:00,
2013-04-06 17:13:00,72.0,41.0,29.68,SSW,202,15.0,21.0,33,-99.99,,,-99.99,,2013-04-06 22:13:00,
2013-04-06 17:22:00,72.0,41.0,29.68,SSW,202,18.0,33.0,32,-99.99,,,-99.99,,2013-04-06 22:22:00,
2013-04-06 17:34:00,74.0,41.0,29.68,SW,225,17.0,28.0,30,-99.99,,,-99.99,,2013-04-06 22:34:00,
2013-04-06 17:43:00,73.0,41.0,29.68,SW,225,17.0,23.0,31,-99.99,,,-99.99,,2013-04-06 22:43:00,
2013-04-06 17:53:00,73.0,41.0,29.68,WSW,247,18.0,27.0,31,-99.99,,,-99.99,,2013-04-06 22:53:00,
2013-04-06 18:03:00,73.0,41.0,29.68,WSW,247,17.0,25.0,31,-99.99,,,-99.99,,2013-04-06 23:03:00,
2013-04-06 18:13:00,73.0,41.0,29.68,SSW,202,14.0,22.0,31,-99.99,,,-99.99,,2013-04-06 23:13:00,
2013-04-06 18:23:00,73.0,41.0,29.69,SW,225,13.0,17.0,32,-99.99,,,-99.99,,2013-04-06 23:23:00,
2013-04-06 18:34:00,73.0,42.0,29.70,WSW,247,12.0,21.0,32,-99.99,,,-99.99,,2013-04-06 23:34:00,
2013-04-06 18:42:00,72.0,42.0,29.69,SW,225,12.0,17.0,34,-99.99,,,-99.99,,2013-04-06 23:42:00,
2013-04-06 18:52:00,72.0,43.0,29.71,WSW,247,12.0,18.0,36,-99.99,,,-99.99,,2013-04-06 23:52:00,
2013-04-06 19:02:00,72.0,44.0,29.70,WSW,247,14.0,25.0,37,-99.99,,,-99.99,,2013-04-07 00:02:00,
2013-04-06 19:12:00,71.0,44.0,29.71,SW,225,14.0,21.0,38,-99.99,,,-99.99,,2013-04-07 00:12:00,
2013-04-06 19:22:00,71.0,44.0,29.71,SW,225,11.0,17.0,38,-99.99,,,-99.99,,2013-04-07 00:22:00,
2013-04-06 19:32:00,71.0,45.0,29.72,WSW,247,13.0,18.0,39,-99.99,,,-99.99,,2013-04-07 00:32:00,
2013-04-06 19:42:00,71.0,46.0,29.72,WSW,247,15.0,24.0,41,-99.99,,,-99.99,,2013-04-07 00:42:00,
2013-04-06 19:52:00,70.0,47.0,29.73,West,270,11.0,17.0,44,-99.99,,,-99.99,,2013-04-07 00:52:00,
2013-04-06 20:02:00,69.0,47.0,29.72,SW,225,11.0,16.0,46,-99.99,,,-99.99,,2013-04-07 01:02:00,
2013-04-06 20:12:00,69.0,47.0,29.72,WSW,247,13.0,18.0,44,-99.99,,,-99.99,,2013-04-07 01:12:00,
2013-04-06 20:22:00,68.0,47.0,29.73,WSW,247,13.0,21.0,47,-99.99,,,-99.99,,2013-04-07 01:22:00,
2013-04-06 20:32:00,68.0,47.0,29.73,SW,225,11.0,17.0,48,-99.99,,,-99.99,,2013-04-07 01:32:00,
2013-04-06 20:42:00,68.0,48.0,29.73,WSW,247,10.0,15.0,49,-99.99,,,-99.99,,2013-04-07 01:42:00,
2013-04-06 20:52:00,67.0,47.0,29.73,WSW,247,10.0,14.0,48,-99.99,,,-99.99,,2013-04-07 01:52:00,
2013-04-06 21:02:00,68.0,47.0,29.73,WSW,247,11.0,17.0,48,-99.99,,,-99.99,,2013-04-07 02:02:00,
2013-04-06 21:12:00,68.0,47.0,29.74,SW,225,11.0,17.0,48,-99.99,,,-99.99,,2013-04-07 02:12:00,
2013-04-06 21:23:00,68.0,48.0,29.74,SW,225,13.0,19.0,48,-99.99,,,-99.99,,2013-04-07 02:23:00,
2013-04-06 21:32:00,68.0,48.0,29.74,SW,225,12.0,21.0,49,-99.99,,,-99.99,,2013-04-07 02:32:00,
2013-04-06 21:42:00,68.0,48.0,29.75,WSW,247,13.0,20.0,49,-99.99,,,-99.99,,2013-04-07 02:42:00,
2013-04-06 21:52:00,68.0,48.0,29.75,SW,225,12.0,18.0,49,-99.99,,,-99.99,,2013-04-07 02:52:00,
2013-04-06 22:02:00,68.0,49.0,29.75,SW,225,10.0,16.0,50,-99.99,,,-99.99,,2013-04-07 03:02:00,
2013-04-06 22:12:00,68.0,49.0,29.76,WSW,247,10.0,15.0,50,-99.99,,,-99.99,,2013-04-07 03:12:00,
2013-04-06 22:22:00,68.0,48.0,29.76,WSW,247,13.0,18.0,50,-99.99,,,-99.99,,2013-04-07 03:22:00,
2013-04-06 22:33:00,67.0,49.0,29.78,WNW,292,9.0,13.0,52,-99.99,,,-99.99,,2013-04-07 03:33:00,
2013-04-06 22:43:00,67.0,49.0,29.78,West,270,9.0,14.0,52,-99.99,,,-99.99,,2013-04-07 03:43:00,
2013-04-06 22:53:00,66.0,49.0,29.78,WNW,292,8.0,11.0,54,-99.99,,,-99.99,,2013-04-07 03:53:00,
2013-04-06 23:03:00,66.0,49.0,29.78,West,270,7.0,11.0,55,-99.99,,,-99.99,,2013-04-07 04:03:00,
2013-04-06 23:13:00,65.0,49.0,29.78,West,270,6.0,11.0,57,-99.99,,,-99.99,,2013-04-07 04:13:00,
2013-04-06 23:23:00,64.0,49.0,29.78,West,270,6.0,8.0,59,-99.99,,,-99.99,,2013-04-07 04:23:00,
2013-04-06 23:32:00,63.0,49.0,29.78,West,270,5.0,8.0,60,-99.99,,,-99.99,,2013-04-07 04:32:00,
2013-04-06 23:43:00,63.0,49.0,29.78,WSW,247,6.0,8.0,61,-99.99,,,-99.99,,2013-04-07 04:43:00,
2013-04-06 23:52:00,62.0,49.0,29.78,West,270,5.0,8.0,63,-99.99,,,-99.99,,2013-04-07 04:52:00,